Terminal Aerodrome Forecast
Issued by NWS Billings, MT

Current Version | Previous Version | Text Only | Print | Product List | Glossary On
Versions: 1 2 3 4 5 6 7 8 9 10 11 12 13 14 15 16 17 18 19 20 21 22 23 24 25 26 27 28 29 30
000
FTUS45 KBYZ 281725
TAFBIL
TAF
KBIL 281725Z 2818/2918 33017G24KT P6SM BKN110
     FM290000 07006KT P6SM BKN100
     FM290600 VRB04KT P6SM FEW080 BKN100
     FM291100 17006KT P6SM SKC=

USA.gov is the U.S. government's official web portal to all federal, state and local government web resources and services.